TimeAST,TemperatureF,Dew PointF,Humidity,Sea Level PressureIn,VisibilityMPH,Wind Direction,Wind SpeedMPH,Gust SpeedMPH,PrecipitationIn,Events,Conditions,WindDirDegrees,DateUTC
12:50 AM,75.2,73.4,94,29.97,10.0,Calm,Calm,-,N/A,,Scattered Clouds,0,2013-10-09 04:50:00
1:50 AM,75.2,73.4,94,29.96,10.0,Calm,Calm,-,N/A,,Scattered Clouds,0,2013-10-09 05:50:00
2:50 AM,75.2,73.4,94,29.95,10.0,Calm,Calm,-,N/A,,Partly Cloudy,0,2013-10-09 06:50:00
3:50 AM,75.2,73.4,94,29.95,10.0,Calm,Calm,-,N/A,,Clear,0,2013-10-09 07:50:00
4:50 AM,75.2,73.4,94,29.95,10.0,Calm,Calm,-,N/A,,Clear,0,2013-10-09 08:50:00
7:50 AM,77.0,73.4,89,29.98,10.0,NE,5.8,-,N/A,,Scattered Clouds,40,2013-10-09 11:50:00
8:50 AM,84.2,75.2,74,30.00,10.0,East,5.8,-,N/A,,Scattered Clouds,90,2013-10-09 12:50:00
9:50 AM,84.2,75.2,74,30.00,10.0,ESE,11.5,-,N/A,,Scattered Clouds,120,2013-10-09 13:50:00
11:50 AM,91.4,75.2,59,30.00,10.0,South,11.5,-,N/A,,Scattered Clouds,180,2013-10-09 15:50:00
12:50 PM,89.6,77.0,66,29.97,10.0,South,11.5,-,N/A,,Scattered Clouds,170,2013-10-09 16:50:00
2:50 PM,91.4,75.2,59,29.95,10.0,SE,11.5,-,N/A,Thunderstorm,Thunderstorm,130,2013-10-09 18:50:00
3:50 PM,89.6,75.2,62,29.95,10.0,SSE,11.5,-,N/A,,Mostly Cloudy,160,2013-10-09 19:50:00
4:50 PM,87.8,75.2,66,29.94,10.0,SSE,3.5,-,N/A,,Mostly Cloudy,160,2013-10-09 20:50:00
5:50 PM,87.8,75.2,66,29.94,10.0,South,5.8,-,N/A,,Mostly Cloudy,180,2013-10-09 21:50:00
6:50 PM,82.4,75.2,79,29.95,10.0,ENE,5.8,-,N/A,Thunderstorm,Thunderstorm,70,2013-10-09 22:50:00
7:50 PM,75.2,75.2,100,29.99,6.0,SE,6.9,-,N/A,Rain-Thunderstorm,Heavy Thunderstorms and Rain,130,2013-10-09 23:50:00
8:50 PM,77.0,75.2,94,29.99,8.0,Calm,Calm,-,N/A,Thunderstorm,Thunderstorm,0,2013-10-10 00:50:00
9:50 PM,77.0,73.4,89,29.99,8.0,Calm,Calm,-,N/A,,Mostly Cloudy,0,2013-10-10 01:50:00
10:50 PM,77.0,73.4,89,29.98,8.0,Calm,Calm,-,N/A,,Mostly Cloudy,0,2013-10-10 02:50:00
11:55 PM,77.0,73.4,89,29.98,8.0,Calm,Calm,-,N/A,Thunderstorm,Thunderstorm,0,2013-10-10 03:55:00